Location: Axtheid
(49.6213°N, 11.8205°E)
Time: 15:51:29
(UTC+00:00)

Cosmos-2242 - Visible Passes

Search period start: 14 May 2021 00:00
Search period end: 24 May 2021 00:00
Orbit: 589 x 618 km, 82.5° (Epoch: 13 May)

Date Brightness Start Highest point End Pass type
(mag) Time Alt. Az. Time Alt. Az. Time Alt. Az.
16 May 6.4 02:20:13 10° NE 02:22:03 12° ENE 02:23:53 10° E visible
17 May 6.0 02:31:49 10° NNE 02:34:51 18° ENE 02:37:53 10° ESE visible
21 May 6.1 01:45:06 10° NNE 01:47:16 13° ENE 01:49:26 10° E visible
22 May 5.8 01:56:51 10° NNE 02:00:03 20° ENE 02:03:16 10° ESE visible
23 May 5.1 02:08:58 10° N 02:12:46 29° ENE 02:16:35 10° SE visible
